Wetterdaten: Samstag, 18.07.2015
Datum Zeit Auen-Temp. Temp gefhlt Luftfeuchte Luftdruck Regen Wind Richtung Richtung Taupunkt Windben
18.07.2015 00:00 18,1 C 18,3 C 62 % 1013,7 hPa 0,0 mm 0,5 km/h (0 Bft) W 270 10,7 C 0,0 km/h (0 Bft)
18.07.2015 00:05 18,2 C 18,2 C 61 % 1013,7 hPa 0,0 mm 0,5 km/h (0 Bft) N-NO 22 10,6 C 0,0 km/h (0 Bft)
18.07.2015 00:10 18,1 C 18,1 C 61 % 1013,7 hPa 0,0 mm 0,0 km/h (0 Bft) N-NO 22 10,5 C 0,0 km/h (0 Bft)
18.07.2015 00:15 17,9 C 17,9 C 61 % 1013,7 hPa 0,0 mm 0,0 km/h (0 Bft) O-NO 67 10,3 C 0,0 km/h (0 Bft)
18.07.2015 00:20 17,7 C 17,7 C 61 % 1013,7 hPa 0,0 mm 0,5 km/h (0 Bft) W-NW 292 10,1 C 0,0 km/h (0 Bft)
18.07.2015 00:25 17,8 C 17,8 C 60 % 1013,7 hPa 0,0 mm 1,3 km/h (1 Bft) W-SW 247 9,9 C 2,6 km/h (1 Bft)
18.07.2015 00:30 17,7 C 17,8 C 60 % 1013,8 hPa 0,0 mm 1,8 km/h (1 Bft) W-NW 292 9,8 C 2,6 km/h (1 Bft)
18.07.2015 00:35 17,7 C 17,8 C 60 % 1013,8 hPa 0,0 mm 1,6 km/h (1 Bft) NW 315 9,8 C 6,5 km/h (2 Bft)
18.07.2015 00:40 17,8 C 17,8 C 60 % 1013,8 hPa 0,0 mm 1,6 km/h (1 Bft) O 90 9,9 C 0,0 km/h (0 Bft)
18.07.2015 00:45 17,6 C 17,6 C 60 % 1013,8 hPa 0,0 mm 1,0 km/h (0 Bft) N-NW 337 9,7 C 0,0 km/h (0 Bft)
18.07.2015 00:50 17,6 C 17,6 C 60 % 1013,9 hPa 0,0 mm 0,3 km/h (0 Bft) N 360 9,7 C 3,1 km/h (1 Bft)
18.07.2015 00:55 17,4 C 17,4 C 60 % 1013,9 hPa 0,0 mm 0,3 km/h (0 Bft) SW 225 9,6 C 0,0 km/h (0 Bft)
18.07.2015 01:00 17,4 C 17,3 C 60 % 1013,9 hPa 0,0 mm 0,3 km/h (0 Bft) O-NO 67 9,6 C 0,0 km/h (0 Bft)
18.07.2015 01:05 17,2 C 17,2 C 60 % 1013,9 hPa 0,0 mm 0,0 km/h (0 Bft) O 90 9,4 C 0,0 km/h (0 Bft)
18.07.2015 01:10 17,1 C 17,0 C 60 % 1013,9 hPa 0,0 mm 0,0 km/h (0 Bft) S 180 9,3 C 0,0 km/h (0 Bft)
18.07.2015 01:15 17,1 C 17,0 C 60 % 1013,9 hPa 0,0 mm 0,0 km/h (0 Bft) O-SO 112 9,3 C 0,0 km/h (0 Bft)
18.07.2015 01:20 17,2 C 17,0 C 61 % 1013,9 hPa 0,0 mm 0,0 km/h (0 Bft) O-NO 67 9,6 C 0,0 km/h (0 Bft)
18.07.2015 01:25 17,2 C 17,0 C 61 % 1013,9 hPa 0,0 mm 0,8 km/h (0 Bft) SW 225 9,6 C 3,1 km/h (1 Bft)
18.07.2015 01:30 17,2 C 17,1 C 60 % 1014,1 hPa 0,0 mm 0,8 km/h (0 Bft) S 180 9,4 C 10,9 km/h (2 Bft)
18.07.2015 01:35 17,0 C 16,9 C 60 % 1014,1 hPa 0,0 mm 0,3 km/h (0 Bft) NO 45 9,2 C 0,0 km/h (0 Bft)
18.07.2015 01:40 16,8 C 16,7 C 60 % 1014,1 hPa 0,0 mm 0,0 km/h (0 Bft) NO 45 9,0 C 0,0 km/h (0 Bft)
18.07.2015 01:45 16,7 C 16,6 C 61 % 1014,1 hPa 0,0 mm 0,0 km/h (0 Bft) NW 315 9,1 C 0,0 km/h (0 Bft)
18.07.2015 01:50 16,6 C 16,5 C 61 % 1013,9 hPa 0,0 mm 0,0 km/h (0 Bft) N-NO 22 9,0 C 0,0 km/h (0 Bft)
18.07.2015 01:55 16,5 C 16,5 C 61 % 1013,9 hPa 0,0 mm 0,0 km/h (0 Bft) N-NW 337 9,0 C 0,0 km/h (0 Bft)
18.07.2015 02:00 16,6 C 16,5 C 62 % 1013,9 hPa 0,0 mm 0,3 km/h (0 Bft) N-NO 22 9,3 C 0,0 km/h (0 Bft)
18.07.2015 02:05 16,5 C 16,4 C 61 % 1013,9 hPa 0,0 mm 0,3 km/h (0 Bft) N-NO 22 9,0 C 0,0 km/h (0 Bft)
18.07.2015 02:10 16,7 C 16,6 C 62 % 1013,6 hPa 0,0 mm 0,3 km/h (0 Bft) N 360 9,4 C 0,0 km/h (0 Bft)
18.07.2015 02:15 16,6 C 16,5 C 62 % 1013,6 hPa 0,0 mm 0,3 km/h (0 Bft) N-NO 22 9,3 C 0,0 km/h (0 Bft)
18.07.2015 02:18 16,6 C 16,6 C 62 % 1013,6 hPa 0,0 mm 0,3 km/h (0 Bft) N-NW 337 9,3 C 0,0 km/h (0 Bft)
18.07.2015 02:20 16,6 C 16,6 C 62 % 1013,6 hPa 0,0 mm 0,3 km/h (0 Bft) N-NW 337 9,3 C 0,0 km/h (0 Bft)
18.07.2015 02:25 16,8 C 16,7 C 62 % 1013,6 hPa 0,0 mm 0,5 km/h (0 Bft) NW 315 9,5 C 0,0 km/h (0 Bft)
18.07.2015 02:30 17,0 C 16,9 C 61 % 1013,6 hPa 0,0 mm 0,8 km/h (0 Bft) N-NO 22 9,4 C 0,0 km/h (0 Bft)
18.07.2015 02:35 16,9 C 16,9 C 61 % 1013,6 hPa 0,0 mm 0,5 km/h (0 Bft) NO 45 9,3 C 0,0 km/h (0 Bft)
18.07.2015 02:40 16,8 C 16,9 C 61 % 1013,6 hPa 0,0 mm 0,3 km/h (0 Bft) N-NO 22 9,2 C 0,0 km/h (0 Bft)
18.07.2015 02:45 16,8 C 16,8 C 60 % 1013,6 hPa 0,0 mm 0,3 km/h (0 Bft) N 360 9,0 C 0,0 km/h (0 Bft)
18.07.2015 02:50 16,8 C 16,8 C 60 % 1013,4 hPa 0,0 mm 0,3 km/h (0 Bft) N-NO 22 9,0 C 0,0 km/h (0 Bft)
18.07.2015 02:55 16,7 C 16,8 C 60 % 1013,4 hPa 0,0 mm 0,3 km/h (0 Bft) N 360 8,9 C 0,0 km/h (0 Bft)
18.07.2015 03:00 16,6 C 16,7 C 60 % 1013,4 hPa 0,0 mm 0,0 km/h (0 Bft) NW 315 8,8 C 0,0 km/h (0 Bft)
18.07.2015 03:05 16,6 C 16,7 C 60 % 1013,4 hPa 0,0 mm 0,3 km/h (0 Bft) W 270 8,8 C 0,0 km/h (0 Bft)
18.07.2015 03:10 16,5 C 16,8 C 60 % 1013,6 hPa 0,0 mm 0,5 km/h (0 Bft) W-NW 292 8,7 C 2,8 km/h (1 Bft)
18.07.2015 03:15 16,8 C 16,9 C 61 % 1013,6 hPa 0,0 mm 0,8 km/h (0 Bft) N-NW 337 9,2 C 0,0 km/h (0 Bft)
18.07.2015 03:20 16,5 C 16,9 C 60 % 1013,6 hPa 0,0 mm 0,5 km/h (0 Bft) N-NO 22 8,7 C 0,0 km/h (0 Bft)
18.07.2015 03:25 16,4 C 16,9 C 61 % 1013,6 hPa 0,0 mm 0,3 km/h (0 Bft) N-NO 22 8,9 C 0,0 km/h (0 Bft)
18.07.2015 03:30 16,4 C 16,7 C 61 % 1013,6 hPa 0,0 mm 0,0 km/h (0 Bft) N-NO 22 8,9 C 0,0 km/h (0 Bft)
18.07.2015 03:35 16,4 C 16,6 C 61 % 1013,6 hPa 0,0 mm 0,0 km/h (0 Bft) N-NO 22 8,9 C 0,0 km/h (0 Bft)
18.07.2015 03:40 16,5 C 16,5 C 61 % 1013,6 hPa 0,0 mm 0,0 km/h (0 Bft) W 270 9,0 C 0,0 km/h (0 Bft)
18.07.2015 03:45 16,5 C 16,5 C 61 % 1013,6 hPa 0,0 mm 0,0 km/h (0 Bft) W-NW 292 9,0 C 0,0 km/h (0 Bft)
18.07.2015 03:50 16,4 C 16,4 C 61 % 1013,7 hPa 0,0 mm 0,0 km/h (0 Bft) N-NO 22 8,9 C 3,4 km/h (1 Bft)
18.07.2015 03:55 16,2 C 16,4 C 61 % 1013,7 hPa 0,0 mm 0,3 km/h (0 Bft) N-NO 22 8,7 C 0,0 km/h (0 Bft)
18.07.2015 04:00 16,3 C 16,4 C 62 % 1013,7 hPa 0,0 mm 0,5 km/h (0 Bft) N-NO 22 9,0 C 0,0 km/h (0 Bft)
18.07.2015 04:05 16,2 C 16,3 C 62 % 1013,7 hPa 0,0 mm 0,3 km/h (0 Bft) N-NO 22 8,9 C 0,0 km/h (0 Bft)
18.07.2015 04:10 16,2 C 16,2 C 62 % 1013,8 hPa 0,0 mm 0,3 km/h (0 Bft) NW 315 8,9 C 5,7 km/h (1 Bft)
18.07.2015 04:15 16,4 C 16,4 C 63 % 1013,8 hPa 0,0 mm 0,5 km/h (0 Bft) N 360 9,3 C 0,0 km/h (0 Bft)
18.07.2015 04:20 16,7 C 16,6 C 62 % 1013,8 hPa 0,0 mm 1,3 km/h (1 Bft) W-SW 247 9,4 C 0,0 km/h (0 Bft)
18.07.2015 04:25 16,4 C 16,5 C 62 % 1013,8 hPa 0,0 mm 0,8 km/h (0 Bft) W-SW 247 9,1 C 0,0 km/h (0 Bft)
18.07.2015 04:30 16,2 C 16,3 C 62 % 1013,8 hPa 0,0 mm 0,0 km/h (0 Bft) S-SW 202 8,9 C 0,0 km/h (0 Bft)
18.07.2015 04:35 16,2 C 16,2 C 62 % 1013,8 hPa 0,0 mm 0,0 km/h (0 Bft) NW 315 8,9 C 0,0 km/h (0 Bft)
18.07.2015 04:40 16,2 C 16,2 C 63 % 1013,8 hPa 0,0 mm 0,5 km/h (0 Bft) W 270 9,1 C 3,9 km/h (1 Bft)
18.07.2015 04:45 16,3 C 16,3 C 63 % 1013,8 hPa 0,0 mm 0,8 km/h (0 Bft) SW 225 9,2 C 0,0 km/h (0 Bft)
18.07.2015 04:50 16,3 C 16,3 C 63 % 1013,9 hPa 0,0 mm 0,5 km/h (0 Bft) N-NO 22 9,2 C 0,0 km/h (0 Bft)
18.07.2015 04:55 16,3 C 16,3 C 63 % 1013,9 hPa 0,0 mm 0,5 km/h (0 Bft) SW 225 9,2 C 0,0 km/h (0 Bft)
18.07.2015 05:00 16,5 C 16,5 C 62 % 1013,9 hPa 0,0 mm 1,3 km/h (1 Bft) W-SW 247 9,2 C 0,0 km/h (0 Bft)
18.07.2015 05:05 16,6 C 16,6 C 62 % 1013,9 hPa 0,0 mm 1,3 km/h (1 Bft) W 270 9,3 C 0,0 km/h (0 Bft)
18.07.2015 05:10 17,0 C 16,9 C 61 % 1014,0 hPa 0,0 mm 0,8 km/h (0 Bft) O-NO 67 9,4 C 0,0 km/h (0 Bft)
18.07.2015 05:15 17,1 C 17,0 C 60 % 1014,0 hPa 0,0 mm 0,8 km/h (0 Bft) NW 315 9,3 C 0,0 km/h (0 Bft)
18.07.2015 05:20 17,0 C 17,0 C 61 % 1014,0 hPa 0,0 mm 1,3 km/h (1 Bft) W-SW 247 9,4 C 3,4 km/h (1 Bft)
18.07.2015 05:25 17,1 C 17,1 C 61 % 1014,0 hPa 0,0 mm 1,3 km/h (1 Bft) O-SO 112 9,5 C 0,0 km/h (0 Bft)
18.07.2015 05:30 16,7 C 16,9 C 61 % 1013,8 hPa 0,0 mm 0,3 km/h (0 Bft) SO 135 9,1 C 0,0 km/h (0 Bft)
18.07.2015 05:35 16,9 C 16,9 C 62 % 1013,8 hPa 0,0 mm 0,0 km/h (0 Bft) O 90 9,6 C 0,0 km/h (0 Bft)
18.07.2015 05:40 17,2 C 17,1 C 61 % 1013,8 hPa 0,0 mm 0,3 km/h (0 Bft) N-NW 337 9,6 C 0,0 km/h (0 Bft)
18.07.2015 05:45 17,2 C 17,1 C 61 % 1013,8 hPa 0,0 mm 0,5 km/h (0 Bft) W-NW 292 9,6 C 0,0 km/h (0 Bft)
18.07.2015 05:50 17,4 C 17,3 C 60 % 1013,9 hPa 0,0 mm 1,0 km/h (0 Bft) SW 225 9,6 C 0,0 km/h (0 Bft)
18.07.2015 05:55 17,1 C 17,1 C 60 % 1013,9 hPa 0,0 mm 0,8 km/h (0 Bft) N-NO 22 9,3 C 0,0 km/h (0 Bft)
18.07.2015 06:00 17,3 C 17,2 C 60 % 1013,9 hPa 0,0 mm 0,3 km/h (0 Bft) N-NO 22 9,5 C 0,0 km/h (0 Bft)
18.07.2015 06:05 16,8 C 16,9 C 60 % 1013,9 hPa 0,0 mm 0,3 km/h (0 Bft) W-SW 247 9,0 C 0,0 km/h (0 Bft)
18.07.2015 06:10 16,8 C 16,9 C 62 % 1014,3 hPa 0,0 mm 0,3 km/h (0 Bft) SO 135 9,5 C 0,0 km/h (0 Bft)
18.07.2015 06:15 17,0 C 17,3 C 61 % 1014,3 hPa 0,0 mm 0,0 km/h (0 Bft) NW 315 9,4 C 0,0 km/h (0 Bft)
18.07.2015 06:20 16,9 C 17,8 C 62 % 1014,3 hPa 0,0 mm 0,0 km/h (0 Bft) NO 45 9,6 C 0,0 km/h (0 Bft)
18.07.2015 06:25 17,1 C 18,1 C 62 % 1014,3 hPa 0,0 mm 0,8 km/h (0 Bft) W 270 9,8 C 8,5 km/h (2 Bft)
18.07.2015 06:30 17,2 C 18,5 C 62 % 1014,4 hPa 0,0 mm 2,8 km/h (1 Bft) S-SO 157 9,9 C 0,0 km/h (0 Bft)
18.07.2015 06:35 17,1 C 19,0 C 62 % 1014,4 hPa 0,0 mm 3,6 km/h (1 Bft) N-NO 22 9,8 C 6,0 km/h (2 Bft)
18.07.2015 06:40 17,2 C 19,7 C 63 % 1014,4 hPa 0,0 mm 1,6 km/h (1 Bft) NO 45 10,1 C 2,8 km/h (1 Bft)
18.07.2015 06:45 17,1 C 20,1 C 63 % 1014,4 hPa 0,0 mm 2,1 km/h (1 Bft) S-SO 157 10,0 C 5,2 km/h (1 Bft)
18.07.2015 06:50 17,3 C 20,6 C 63 % 1014,8 hPa 0,0 mm 2,3 km/h (1 Bft) S-SW 202 10,2 C 7,0 km/h (2 Bft)
18.07.2015 06:55 17,5 C 21,0 C 64 % 1014,8 hPa 0,0 mm 3,1 km/h (1 Bft) SW 225 10,6 C 0,0 km/h (0 Bft)
18.07.2015 07:00 17,8 C 22,0 C 64 % 1014,8 hPa 0,0 mm 2,1 km/h (1 Bft) O-SO 112 10,9 C 0,0 km/h (0 Bft)
18.07.2015 07:05 18,0 C 22,5 C 64 % 1014,8 hPa 0,0 mm 0,5 km/h (0 Bft) O-SO 112 11,1 C 0,0 km/h (0 Bft)
18.07.2015 07:10 18,4 C 23,3 C 63 % 1014,6 hPa 0,0 mm 0,0 km/h (0 Bft) NO 45 11,2 C 0,0 km/h (0 Bft)
18.07.2015 07:15 18,7 C 23,9 C 63 % 1014,6 hPa 0,0 mm 0,0 km/h (0 Bft) NO 45 11,5 C 0,0 km/h (0 Bft)
18.07.2015 07:20 19,6 C 25,4 C 60 % 1014,6 hPa 0,0 mm 0,0 km/h (0 Bft) N-NO 22 11,6 C 0,0 km/h (0 Bft)
18.07.2015 07:25 19,9 C 26,1 C 60 % 1014,6 hPa 0,0 mm 0,0 km/h (0 Bft) NO 45 11,9 C 0,0 km/h (0 Bft)
18.07.2015 07:30 20,6 C 27,6 C 59 % 1014,3 hPa 0,0 mm 0,0 km/h (0 Bft) NO 45 12,3 C 0,0 km/h (0 Bft)
18.07.2015 07:35 21,1 C 28,9 C 59 % 1014,3 hPa 0,0 mm 0,0 km/h (0 Bft) NO 45 12,8 C 0,0 km/h (0 Bft)
18.07.2015 07:40 20,5 C 27,4 C 59 % 1014,3 hPa 0,0 mm 0,0 km/h (0 Bft) N-NO 22 12,2 C 0,0 km/h (0 Bft)
18.07.2015 07:45 20,2 C 25,4 C 61 % 1014,3 hPa 0,0 mm 0,0 km/h (0 Bft) NO 45 12,4 C 0,0 km/h (0 Bft)
18.07.2015 07:50 19,9 C 23,4 C 62 % 1014,6 hPa 0,0 mm 0,0 km/h (0 Bft) NO 45 12,4 C 0,0 km/h (0 Bft)
18.07.2015 07:55 20,0 C 22,9 C 62 % 1014,6 hPa 0,0 mm 0,0 km/h (0 Bft) N-NO 22 12,5 C 0,0 km/h (0 Bft)
18.07.2015 08:00 21,0 C 25,7 C 62 % 1014,6 hPa 0,0 mm 0,0 km/h (0 Bft) NO 45 13,4 C 0,0 km/h (0 Bft)
18.07.2015 08:05 20,8 C 25,5 C 61 % 1014,6 hPa 0,0 mm 0,0 km/h (0 Bft) N-NO 22 13,0 C 0,0 km/h (0 Bft)
18.07.2015 08:10 21,0 C 24,9 C 60 % 1014,4 hPa 0,0 mm 0,5 km/h (0 Bft) W 270 12,9 C 4,4 km/h (1 Bft)
18.07.2015 08:15 21,0 C 24,6 C 60 % 1014,4 hPa 0,0 mm 1,0 km/h (0 Bft) W-SW 247 12,9 C 0,0 km/h (0 Bft)
18.07.2015 08:19 20,7 C 23,9 C 61 % 1014,4 hPa 0,0 mm 0,8 km/h (0 Bft) O-NO 67 12,9 C 0,0 km/h (0 Bft)
18.07.2015 08:20 20,7 C 23,9 C 61 % 1014,4 hPa 0,0 mm 0,8 km/h (0 Bft) O-NO 67 12,9 C 0,0 km/h (0 Bft)
18.07.2015 08:25 20,6 C 23,4 C 62 % 1014,4 hPa 0,0 mm 0,5 km/h (0 Bft) N-NW 337 13,1 C 6,7 km/h (2 Bft)
18.07.2015 08:30 21,2 C 24,6 C 61 % 1014,6 hPa 0,0 mm 3,4 km/h (1 Bft) NW 315 13,4 C 11,4 km/h (2 Bft)
18.07.2015 08:35 21,7 C 26,1 C 60 % 1014,6 hPa 0,0 mm 5,2 km/h (1 Bft) N-NO 22 13,6 C 0,0 km/h (0 Bft)
18.07.2015 08:40 22,2 C 28,4 C 58 % 1014,6 hPa 0,0 mm 3,1 km/h (1 Bft) S-SO 157 13,5 C 0,0 km/h (0 Bft)
18.07.2015 08:45 22,3 C 29,1 C 59 % 1014,6 hPa 0,0 mm 1,0 km/h (0 Bft) N-NO 22 13,9 C 0,0 km/h (0 Bft)
18.07.2015 08:50 22,9 C 29,9 C 59 % 1014,2 hPa 0,0 mm 0,8 km/h (0 Bft) O 90 14,5 C 0,0 km/h (0 Bft)
18.07.2015 08:55 23,4 C 30,6 C 59 % 1014,2 hPa 0,0 mm 0,5 km/h (0 Bft) NO 45 14,9 C 0,0 km/h (0 Bft)
18.07.2015 09:00 23,8 C 31,2 C 58 % 1014,2 hPa 0,0 mm 0,3 km/h (0 Bft) N-NO 22 15,0 C 0,0 km/h (0 Bft)
18.07.2015 09:05 24,1 C 31,3 C 57 % 1014,2 hPa 0,0 mm 0,3 km/h (0 Bft) O-NO 67 15,0 C 0,0 km/h (0 Bft)
18.07.2015 09:10 24,7 C 32,7 C 56 % 1014,6 hPa 0,0 mm 0,3 km/h (0 Bft) NO 45 15,3 C 0,0 km/h (0 Bft)
18.07.2015 09:15 24,7 C 33,5 C 55 % 1014,6 hPa 0,0 mm 0,0 km/h (0 Bft) O-NO 67 15,0 C 0,0 km/h (0 Bft)
18.07.2015 09:20 24,8 C 33,2 C 55 % 1014,6 hPa 0,0 mm 0,0 km/h (0 Bft) NO 45 15,1 C 0,0 km/h (0 Bft)
18.07.2015 09:25 24,9 C 33,6 C 56 % 1014,6 hPa 0,0 mm 0,0 km/h (0 Bft) NO 45 15,5 C 0,0 km/h (0 Bft)
18.07.2015 09:30 24,5 C 32,2 C 56 % 1014,9 hPa 0,0 mm 0,0 km/h (0 Bft) NO 45 15,1 C 0,0 km/h (0 Bft)
18.07.2015 09:35 23,8 C 30,8 C 56 % 1014,9 hPa 0,0 mm 0,0 km/h (0 Bft) NO 45 14,5 C 0,0 km/h (0 Bft)
18.07.2015 09:40 24,6 C 32,1 C 58 % 1014,9 hPa 0,0 mm 0,0 km/h (0 Bft) NO 45 15,8 C 0,0 km/h (0 Bft)
18.07.2015 09:45 24,7 C 31,7 C 57 % 1014,9 hPa 0,0 mm 0,0 km/h (0 Bft) O-NO 67 15,6 C 0,0 km/h (0 Bft)
18.07.2015 09:50 24,1 C 29,9 C 58 % 1015,1 hPa 0,0 mm 0,0 km/h (0 Bft) O-NO 67 15,3 C 0,0 km/h (0 Bft)
18.07.2015 09:55 24,0 C 29,7 C 59 % 1015,1 hPa 0,0 mm 0,0 km/h (0 Bft) O-NO 67 15,5 C 0,0 km/h (0 Bft)
18.07.2015 10:00 24,1 C 29,8 C 59 % 1015,1 hPa 0,0 mm 0,0 km/h (0 Bft) N-NW 337 15,6 C 0,0 km/h (0 Bft)
18.07.2015 10:05 24,3 C 29,7 C 59 % 1015,1 hPa 0,0 mm 0,0 km/h (0 Bft) NW 315 15,8 C 0,0 km/h (0 Bft)
18.07.2015 10:10 25,5 C 32,9 C 59 % 1015,2 hPa 0,0 mm 0,0 km/h (0 Bft) NW 315 16,9 C 0,0 km/h (0 Bft)
18.07.2015 10:15 26,3 C 34,1 C 57 % 1015,2 hPa 0,0 mm 0,5 km/h (0 Bft) O-SO 112 17,1 C 0,0 km/h (0 Bft)
18.07.2015 10:20 26,4 C 33,7 C 55 % 1015,2 hPa 0,0 mm 0,5 km/h (0 Bft) O-NO 67 16,6 C 0,0 km/h (0 Bft)
18.07.2015 10:25 26,6 C 33,6 C 55 % 1015,2 hPa 0,0 mm 0,0 km/h (0 Bft) O-NO 67 16,8 C 0,0 km/h (0 Bft)
18.07.2015 10:30 27,0 C 33,9 C 53 % 1015,5 hPa 0,0 mm 1,6 km/h (1 Bft) W 270 16,6 C 5,7 km/h (1 Bft)
18.07.2015 10:35 27,3 C 33,9 C 52 % 1015,5 hPa 0,0 mm 2,1 km/h (1 Bft) N-NW 337 16,6 C 5,7 km/h (1 Bft)
18.07.2015 10:40 27,6 C 34,2 C 50 % 1015,5 hPa 0,0 mm 4,7 km/h (1 Bft) W 270 16,2 C 11,7 km/h (2 Bft)
18.07.2015 10:45 27,3 C 33,3 C 50 % 1015,5 hPa 0,0 mm 6,7 km/h (2 Bft) N-NW 337 15,9 C 4,4 km/h (1 Bft)
18.07.2015 10:50 27,6 C 33,4 C 50 % 1015,9 hPa 0,0 mm 5,4 km/h (1 Bft) W-SW 247 16,2 C 11,4 km/h (2 Bft)
18.07.2015 10:55 27,6 C 33,0 C 46 % 1015,9 hPa 0,0 mm 6,2 km/h (2 Bft) NW 315 14,9 C 19,4 km/h (3 Bft)
18.07.2015 11:00 27,5 C 32,5 C 45 % 1015,9 hPa 0,0 mm 9,1 km/h (2 Bft) W-NW 292 14,5 C 9,8 km/h (2 Bft)
18.07.2015 11:05 27,5 C 32,4 C 45 % 1015,9 hPa 0,0 mm 8,8 km/h (2 Bft) W 270 14,5 C 4,9 km/h (1 Bft)
18.07.2015 11:10 27,0 C 30,7 C 46 % 1016,1 hPa 0,0 mm 7,3 km/h (2 Bft) W-SW 247 14,4 C 21,2 km/h (4 Bft)
18.07.2015 11:15 26,5 C 29,6 C 47 % 1016,1 hPa 0,0 mm 6,5 km/h (2 Bft) W-NW 292 14,3 C 11,7 km/h (2 Bft)
18.07.2015 11:20 26,2 C 28,5 C 47 % 1016,1 hPa 0,0 mm 4,7 km/h (1 Bft) W 270 14,0 C 3,4 km/h (1 Bft)
18.07.2015 11:25 26,1 C 28,3 C 48 % 1016,1 hPa 0,0 mm 3,1 km/h (1 Bft) W 270 14,2 C 3,1 km/h (1 Bft)
18.07.2015 11:30 25,9 C 28,1 C 49 % 1016,0 hPa 0,0 mm 0,8 km/h (0 Bft) SW 225 14,4 C 0,0 km/h (0 Bft)
18.07.2015 11:35 25,7 C 27,9 C 51 % 1016,0 hPa 0,0 mm 0,3 km/h (0 Bft) O-SO 112 14,8 C 0,0 km/h (0 Bft)
18.07.2015 11:40 25,8 C 28,1 C 51 % 1016,0 hPa 0,0 mm 3,1 km/h (1 Bft) NW 315 14,9 C 7,8 km/h (2 Bft)
18.07.2015 11:45 25,9 C 28,6 C 50 % 1016,0 hPa 0,0 mm 4,4 km/h (1 Bft) S-SW 202 14,7 C 4,1 km/h (1 Bft)
18.07.2015 11:50 25,8 C 29,1 C 50 % 1016,1 hPa 0,0 mm 3,6 km/h (1 Bft) SO 135 14,6 C 0,0 km/h (0 Bft)
18.07.2015 11:55 25,9 C 29,1 C 50 % 1016,1 hPa 0,0 mm 3,1 km/h (1 Bft) S 180 14,7 C 4,4 km/h (1 Bft)
18.07.2015 12:00 26,9 C 31,1 C 49 % 1016,1 hPa 0,0 mm 4,9 km/h (1 Bft) W-SW 247 15,3 C 6,5 km/h (2 Bft)
18.07.2015 12:05 26,8 C 31,6 C 47 % 1016,1 hPa 0,0 mm 7,0 km/h (2 Bft) W-SW 247 14,5 C 6,5 km/h (2 Bft)
18.07.2015 12:10 26,1 C 29,9 C 48 % 1016,2 hPa 0,0 mm 7,5 km/h (2 Bft) W-SW 247 14,2 C 6,5 km/h (2 Bft)
18.07.2015 12:15 25,9 C 29,1 C 49 % 1016,2 hPa 0,0 mm 5,4 km/h (1 Bft) N-NW 337 14,4 C 5,4 km/h (1 Bft)
18.07.2015 12:20 26,1 C 29,2 C 49 % 1016,2 hPa 0,0 mm 2,8 km/h (1 Bft) W-SW 247 14,5 C 0,0 km/h (0 Bft)
18.07.2015 12:25 26,5 C 30,0 C 50 % 1016,2 hPa 0,0 mm 2,6 km/h (1 Bft) NW 315 15,2 C 9,1 km/h (2 Bft)
18.07.2015 12:30 26,6 C 30,4 C 50 % 1016,4 hPa 0,0 mm 6,7 km/h (2 Bft) O-SO 112 15,3 C 13,7 km/h (3 Bft)
18.07.2015 12:35 26,7 C 30,4 C 50 % 1016,4 hPa 0,0 mm 10,9 km/h (2 Bft) W-SW 247 15,4 C 28,2 km/h (4 Bft)
18.07.2015 12:40 26,3 C 29,6 C 50 % 1016,4 hPa 0,0 mm 13,7 km/h (3 Bft) W-NW 292 15,0 C 31,1 km/h (5 Bft)
18.07.2015 12:45 26,2 C 29,8 C 50 % 1016,4 hPa 0,0 mm 16,8 km/h (3 Bft) N-NW 337 14,9 C 14,5 km/h (3 Bft)
18.07.2015 12:50 26,4 C 29,6 C 50 % 1016,6 hPa 0,0 mm 15,5 km/h (3 Bft) W 270 15,1 C 41,4 km/h (6 Bft)
18.07.2015 12:55 25,8 C 29,1 C 52 % 1016,6 hPa 0,0 mm 15,3 km/h (3 Bft) W-NW 292 15,2 C 30,3 km/h (5 Bft)
18.07.2015 13:00 25,5 C 28,5 C 53 % 1016,6 hPa 0,0 mm 13,7 km/h (3 Bft) NW 315 15,2 C 26,9 km/h (4 Bft)
18.07.2015 13:05 25,5 C 28,3 C 54 % 1016,6 hPa 0,0 mm 11,7 km/h (2 Bft) NW 315 15,5 C 12,4 km/h (3 Bft)
18.07.2015 13:10 25,7 C 28,6 C 55 % 1016,8 hPa 0,0 mm 11,7 km/h (2 Bft) W 270 16,0 C 20,5 km/h (4 Bft)
18.07.2015 13:15 26,3 C 29,6 C 52 % 1016,8 hPa 0,0 mm 13,2 km/h (3 Bft) W 270 15,6 C 23,0 km/h (4 Bft)
18.07.2015 13:20 25,8 C 29,3 C 54 % 1016,8 hPa 0,0 mm 15,3 km/h (3 Bft) W-SW 247 15,8 C 14,2 km/h (3 Bft)
18.07.2015 13:25 25,7 C 29,1 C 55 % 1016,8 hPa 0,0 mm 14,8 km/h (3 Bft) SO 135 16,0 C 8,8 km/h (2 Bft)
18.07.2015 13:30 25,6 C 28,8 C 56 % 1016,8 hPa 0,0 mm 13,5 km/h (3 Bft) W 270 16,2 C 17,3 km/h (3 Bft)
18.07.2015 13:35 25,8 C 28,8 C 55 % 1016,8 hPa 0,0 mm 13,5 km/h (3 Bft) W-NW 292 16,1 C 18,6 km/h (3 Bft)
18.07.2015 13:40 25,5 C 28,7 C 56 % 1016,8 hPa 0,0 mm 12,9 km/h (3 Bft) W 270 16,1 C 9,6 km/h (2 Bft)
18.07.2015 13:45 25,6 C 28,9 C 56 % 1016,8 hPa 0,0 mm 10,6 km/h (2 Bft) S 180 16,2 C 7,0 km/h (2 Bft)
18.07.2015 13:50 26,4 C 30,1 C 54 % 1016,7 hPa 0,0 mm 8,0 km/h (2 Bft) W-SW 247 16,3 C 22,0 km/h (4 Bft)
18.07.2015 13:55 26,3 C 30,2 C 54 % 1016,7 hPa 0,0 mm 9,3 km/h (2 Bft) W 270 16,2 C 12,2 km/h (2 Bft)
18.07.2015 14:00 26,0 C 30,1 C 54 % 1016,7 hPa 0,0 mm 9,8 km/h (2 Bft) W-NW 292 16,0 C 15,5 km/h (3 Bft)
18.07.2015 14:05 25,6 C 29,1 C 56 % 1016,7 hPa 0,0 mm 8,3 km/h (2 Bft) W-SW 247 16,2 C 14,0 km/h (3 Bft)
18.07.2015 14:10 24,8 C 27,8 C 56 % 1016,6 hPa 0,0 mm 8,3 km/h (2 Bft) W-NW 292 15,4 C 9,3 km/h (2 Bft)
18.07.2015 14:15 24,7 C 27,6 C 57 % 1016,6 hPa 0,0 mm 7,0 km/h (2 Bft) W-SW 247 15,6 C 4,7 km/h (1 Bft)
18.07.2015 14:20 24,8 C 27,8 C 57 % 1016,6 hPa 0,0 mm 6,5 km/h (2 Bft) W 270 15,7 C 11,7 km/h (2 Bft)
18.07.2015 14:25 25,5 C 28,9 C 57 % 1016,6 hPa 0,0 mm 8,0 km/h (2 Bft) W-SW 247 16,3 C 12,7 km/h (3 Bft)
18.07.2015 14:30 26,0 C 30,2 C 54 % 1016,4 hPa 0,0 mm 7,8 km/h (2 Bft) W-SW 247 16,0 C 10,9 km/h (2 Bft)
18.07.2015 14:35 26,0 C 30,5 C 54 % 1016,4 hPa 0,0 mm 6,7 km/h (2 Bft) W-NW 292 16,0 C 14,0 km/h (3 Bft)
18.07.2015 14:40 25,3 C 28,9 C 56 % 1016,4 hPa 0,0 mm 6,2 km/h (2 Bft) NW 315 15,9 C 19,7 km/h (3 Bft)
18.07.2015 14:45 25,2 C 28,4 C 56 % 1016,4 hPa 0,0 mm 7,5 km/h (2 Bft) W 270 15,8 C 5,7 km/h (1 Bft)
18.07.2015 14:50 25,5 C 28,7 C 56 % 1016,2 hPa 0,0 mm 7,0 km/h (2 Bft) SW 225 16,1 C 7,3 km/h (2 Bft)
18.07.2015 14:55 25,7 C 29,4 C 56 % 1016,2 hPa 0,0 mm 6,7 km/h (2 Bft) W-NW 292 16,2 C 13,2 km/h (3 Bft)
18.07.2015 15:00 26,0 C 30,2 C 54 % 1016,2 hPa 0,0 mm 9,1 km/h (2 Bft) N-NW 337 16,0 C 9,3 km/h (2 Bft)
18.07.2015 15:05 26,4 C 30,9 C 53 % 1016,2 hPa 0,0 mm 9,1 km/h (2 Bft) NW 315 16,0 C 17,3 km/h (3 Bft)
18.07.2015 15:10 26,2 C 30,3 C 52 % 1016,1 hPa 0,0 mm 7,0 km/h (2 Bft) W 270 15,6 C 13,7 km/h (3 Bft)
18.07.2015 15:15 25,8 C 29,5 C 55 % 1016,1 hPa 0,0 mm 5,7 km/h (1 Bft) S 180 16,1 C 3,4 km/h (1 Bft)
18.07.2015 15:20 25,5 C 28,8 C 55 % 1016,1 hPa 0,0 mm 4,7 km/h (1 Bft) W 270 15,8 C 7,8 km/h (2 Bft)
18.07.2015 15:25 25,5 C 28,6 C 56 % 1016,1 hPa 0,0 mm 3,9 km/h (1 Bft) W 270 16,1 C 6,5 km/h (2 Bft)
18.07.2015 15:30 25,8 C 29,1 C 56 % 1015,8 hPa 0,0 mm 4,4 km/h (1 Bft) W 270 16,3 C 3,4 km/h (1 Bft)
18.07.2015 15:35 25,6 C 29,2 C 55 % 1015,8 hPa 0,0 mm 4,4 km/h (1 Bft) S-SW 202 15,9 C 4,4 km/h (1 Bft)
18.07.2015 15:40 25,3 C 28,8 C 55 % 1015,8 hPa 0,0 mm 5,7 km/h (1 Bft) W 270 15,6 C 7,0 km/h (2 Bft)
18.07.2015 15:45 25,3 C 28,6 C 55 % 1015,8 hPa 0,0 mm 6,7 km/h (2 Bft) SW 225 15,6 C 10,4 km/h (2 Bft)
18.07.2015 15:50 25,0 C 28,2 C 55 % 1015,8 hPa 0,0 mm 7,5 km/h (2 Bft) S 180 15,3 C 8,0 km/h (2 Bft)
18.07.2015 15:55 24,9 C 27,6 C 56 % 1015,8 hPa 0,0 mm 7,5 km/h (2 Bft) W 270 15,5 C 9,1 km/h (2 Bft)
18.07.2015 16:00 24,6 C 26,9 C 56 % 1015,8 hPa 0,0 mm 8,0 km/h (2 Bft) W-SW 247 15,2 C 12,4 km/h (3 Bft)
18.07.2015 16:05 24,3 C 26,3 C 57 % 1015,8 hPa 0,0 mm 7,5 km/h (2 Bft) W-SW 247 15,2 C 9,8 km/h (2 Bft)
18.07.2015 16:10 24,0 C 25,4 C 57 % 1015,6 hPa 0,0 mm 6,2 km/h (2 Bft) W 270 14,9 C 7,3 km/h (2 Bft)
18.07.2015 16:15 23,9 C 24,9 C 58 % 1015,6 hPa 0,0 mm 6,2 km/h (2 Bft) W-NW 292 15,1 C 6,7 km/h (2 Bft)
18.07.2015 16:20 23,7 C 24,6 C 58 % 1015,6 hPa 0,0 mm 5,2 km/h (1 Bft) NW 315 14,9 C 6,7 km/h (2 Bft)
18.07.2015 16:25 23,6 C 24,3 C 58 % 1015,6 hPa 0,0 mm 4,9 km/h (1 Bft) W 270 14,8 C 12,7 km/h (3 Bft)
18.07.2015 16:30 23,5 C 24,1 C 59 % 1015,1 hPa 0,0 mm 4,7 km/h (1 Bft) W 270 15,0 C 3,1 km/h (1 Bft)
18.07.2015 16:35 23,4 C 24,1 C 59 % 1015,1 hPa 0,0 mm 2,6 km/h (1 Bft) O-SO 112 14,9 C 0,0 km/h (0 Bft)
18.07.2015 16:40 23,3 C 24,0 C 59 % 1015,1 hPa 0,0 mm 0,3 km/h (0 Bft) NW 315 14,8 C 0,0 km/h (0 Bft)
18.07.2015 16:45 23,1 C 23,9 C 59 % 1015,1 hPa 0,0 mm 0,3 km/h (0 Bft) NW 315 14,6 C 0,0 km/h (0 Bft)
18.07.2015 16:50 23,1 C 23,9 C 59 % 1014,8 hPa 0,0 mm 0,5 km/h (0 Bft) W 270 14,6 C 3,6 km/h (1 Bft)
18.07.2015 16:55 23,1 C 24,0 C 59 % 1014,8 hPa 0,0 mm 1,0 km/h (0 Bft) SW 225 14,6 C 5,7 km/h (1 Bft)
18.07.2015 17:00 22,9 C 23,7 C 62 % 1014,8 hPa 0,0 mm 1,6 km/h (1 Bft) W-NW 292 15,2 C 2,8 km/h (1 Bft)
18.07.2015 17:05 22,8 C 23,5 C 63 % 1014,8 hPa 0,0 mm 1,3 km/h (1 Bft) O 90 15,4 C 0,0 km/h (0 Bft)
18.07.2015 17:10 22,1 C 22,0 C 65 % 1015,0 hPa 0,0 mm 0,5 km/h (0 Bft) W-NW 292 15,2 C 6,0 km/h (2 Bft)
18.07.2015 17:15 22,0 C 21,6 C 66 % 1015,0 hPa 0,0 mm 0,5 km/h (0 Bft) W-NW 292 15,3 C 0,0 km/h (0 Bft)
18.07.2015 17:20 21,8 C 21,5 C 67 % 1015,0 hPa 0,0 mm 0,5 km/h (0 Bft) S 180 15,4 C 0,0 km/h (0 Bft)
18.07.2015 17:25 21,8 C 21,7 C 68 % 1015,0 hPa 0,0 mm 0,0 km/h (0 Bft) S-SO 157 15,6 C 0,0 km/h (0 Bft)
18.07.2015 17:30 21,9 C 22,2 C 69 % 1014,6 hPa 0,0 mm 0,0 km/h (0 Bft) O-NO 67 15,9 C 0,0 km/h (0 Bft)
18.07.2015 17:35 22,3 C 23,3 C 68 % 1014,6 hPa 0,0 mm 0,0 km/h (0 Bft) S-SO 157 16,1 C 0,0 km/h (0 Bft)
18.07.2015 17:40 22,6 C 24,0 C 66 % 1014,6 hPa 0,0 mm 0,3 km/h (0 Bft) S-SO 157 15,9 C 0,0 km/h (0 Bft)
18.07.2015 17:45 22,7 C 24,5 C 66 % 1014,6 hPa 0,0 mm 0,3 km/h (0 Bft) O-SO 112 16,0 C 0,0 km/h (0 Bft)
18.07.2015 17:50 23,0 C 25,3 C 63 % 1014,1 hPa 0,0 mm 0,3 km/h (0 Bft) O-NO 67 15,6 C 3,1 km/h (1 Bft)
18.07.2015 17:55 23,0 C 25,6 C 63 % 1014,1 hPa 0,0 mm 0,3 km/h (0 Bft) O-NO 67 15,6 C 0,0 km/h (0 Bft)
18.07.2015 18:00 23,2 C 26,0 C 63 % 1014,1 hPa 0,0 mm 1,6 km/h (1 Bft) N-NO 22 15,8 C 2,8 km/h (1 Bft)
18.07.2015 18:05 23,4 C 26,2 C 63 % 1014,1 hPa 0,0 mm 3,1 km/h (1 Bft) O-NO 67 15,9 C 4,9 km/h (1 Bft)
18.07.2015 18:10 23,6 C 26,1 C 63 % 1013,8 hPa 0,0 mm 4,4 km/h (1 Bft) NO 45 16,1 C 6,5 km/h (2 Bft)
18.07.2015 18:15 23,5 C 25,7 C 62 % 1013,8 hPa 0,0 mm 5,2 km/h (1 Bft) O-SO 112 15,8 C 4,9 km/h (1 Bft)
18.07.2015 18:20 23,4 C 25,3 C 63 % 1013,8 hPa 0,0 mm 6,2 km/h (2 Bft) O 90 15,9 C 6,0 km/h (2 Bft)
18.07.2015 18:25 23,5 C 25,0 C 62 % 1013,8 hPa 0,0 mm 5,7 km/h (1 Bft) NO 45 15,8 C 6,5 km/h (2 Bft)
18.07.2015 18:30 23,5 C 24,9 C 63 % 1013,4 hPa 0,0 mm 5,7 km/h (1 Bft) O-NO 67 16,0 C 7,5 km/h (2 Bft)
18.07.2015 18:35 23,6 C 24,8 C 62 % 1013,4 hPa 0,0 mm 6,5 km/h (2 Bft) N-NO 22 15,9 C 4,7 km/h (1 Bft)
18.07.2015 18:40 23,6 C 24,7 C 62 % 1013,4 hPa 0,0 mm 6,7 km/h (2 Bft) O-NO 67 15,9 C 4,1 km/h (1 Bft)
18.07.2015 18:45 23,3 C 24,4 C 62 % 1013,4 hPa 0,0 mm 5,7 km/h (1 Bft) O-NO 67 15,6 C 4,4 km/h (1 Bft)
18.07.2015 18:50 23,4 C 24,5 C 62 % 1013,2 hPa 0,0 mm 4,7 km/h (1 Bft) N-NO 22 15,7 C 5,4 km/h (1 Bft)
18.07.2015 18:55 23,4 C 25,1 C 62 % 1013,2 hPa 0,0 mm 4,1 km/h (1 Bft) NO 45 15,7 C 4,1 km/h (1 Bft)
18.07.2015 19:00 23,4 C 26,1 C 61 % 1013,2 hPa 0,0 mm 3,9 km/h (1 Bft) N-NO 22 15,4 C 13,5 km/h (3 Bft)
18.07.2015 19:05 23,3 C 26,1 C 61 % 1013,2 hPa 0,0 mm 3,9 km/h (1 Bft) NO 45 15,3 C 3,1 km/h (1 Bft)
18.07.2015 19:10 23,2 C 26,0 C 62 % 1013,2 hPa 0,0 mm 4,4 km/h (1 Bft) N-NO 22 15,5 C 10,9 km/h (2 Bft)
18.07.2015 19:15 23,3 C 26,4 C 61 % 1013,2 hPa 0,0 mm 5,4 km/h (1 Bft) NO 45 15,3 C 4,7 km/h (1 Bft)
18.07.2015 19:20 23,0 C 26,4 C 61 % 1013,2 hPa 0,0 mm 6,5 km/h (2 Bft) N 360 15,1 C 5,4 km/h (1 Bft)
18.07.2015 19:25 22,8 C 25,5 C 62 % 1013,2 hPa 0,0 mm 4,4 km/h (1 Bft) N-NW 337 15,1 C 3,4 km/h (1 Bft)
18.07.2015 19:30 22,5 C 24,5 C 64 % 1013,2 hPa 0,0 mm 1,3 km/h (1 Bft) SO 135 15,3 C 3,6 km/h (1 Bft)
18.07.2015 19:35 22,5 C 24,2 C 64 % 1013,2 hPa 0,0 mm 0,8 km/h (0 Bft) NO 45 15,3 C 0,0 km/h (0 Bft)
18.07.2015 19:40 22,5 C 24,4 C 65 % 1013,2 hPa 0,0 mm 0,3 km/h (0 Bft) N 360 15,6 C 0,0 km/h (0 Bft)
18.07.2015 19:45 22,6 C 25,1 C 65 % 1013,2 hPa 0,0 mm 0,0 km/h (0 Bft) O-NO 67 15,7 C 0,0 km/h (0 Bft)
18.07.2015 19:50 22,7 C 25,8 C 66 % 1013,2 hPa 0,0 mm 0,0 km/h (0 Bft) O-SO 112 16,0 C 0,0 km/h (0 Bft)
18.07.2015 19:55 22,6 C 26,0 C 66 % 1013,2 hPa 0,0 mm 0,0 km/h (0 Bft) O 90 15,9 C 0,0 km/h (0 Bft)
18.07.2015 20:00 22,5 C 26,4 C 66 % 1013,2 hPa 0,0 mm 0,0 km/h (0 Bft) O-NO 67 15,8 C 0,0 km/h (0 Bft)
18.07.2015 20:05 22,5 C 26,2 C 66 % 1013,2 hPa 0,0 mm 0,3 km/h (0 Bft) O-NO 67 15,8 C 3,1 km/h (1 Bft)
18.07.2015 20:10 22,4 C 25,8 C 66 % 1013,2 hPa 0,0 mm 0,5 km/h (0 Bft) O 90 15,7 C 2,8 km/h (1 Bft)
18.07.2015 20:15 22,2 C 25,5 C 66 % 1013,2 hPa 0,0 mm 0,5 km/h (0 Bft) NO 45 15,5 C 0,0 km/h (0 Bft)
18.07.2015 20:20 21,8 C 24,8 C 67 % 1013,2 hPa 0,0 mm 0,5 km/h (0 Bft) O 90 15,4 C 0,0 km/h (0 Bft)
18.07.2015 20:21 21,8 C 24,8 C 67 % 1013,2 hPa 0,0 mm 0,5 km/h (0 Bft) O 90 15,4 C 0,0 km/h (0 Bft)
18.07.2015 20:25 21,8 C 24,8 C 67 % 1013,2 hPa 0,0 mm 0,5 km/h (0 Bft) O 90 15,4 C 0,0 km/h (0 Bft)
18.07.2015 20:30 21,5 C 24,3 C 68 % 1012,9 hPa 0,0 mm 0,3 km/h (0 Bft) O-SO 112 15,3 C 0,0 km/h (0 Bft)
18.07.2015 20:35 21,3 C 23,9 C 69 % 1012,9 hPa 0,0 mm 0,0 km/h (0 Bft) SO 135 15,4 C 0,0 km/h (0 Bft)
18.07.2015 20:40 21,1 C 23,3 C 69 % 1012,9 hPa 0,0 mm 0,0 km/h (0 Bft) O-SO 112 15,2 C 0,0 km/h (0 Bft)
18.07.2015 20:45 21,0 C 22,9 C 72 % 1012,9 hPa 0,0 mm 0,0 km/h (0 Bft) SO 135 15,8 C 0,0 km/h (0 Bft)
18.07.2015 20:50 20,8 C 22,3 C 71 % 1013,0 hPa 0,0 mm 0,0 km/h (0 Bft) S-SO 157 15,3 C 0,0 km/h (0 Bft)
18.07.2015 20:55 20,6 C 21,8 C 73 % 1013,0 hPa 0,0 mm 0,0 km/h (0 Bft) S-SO 157 15,6 C 0,0 km/h (0 Bft)
18.07.2015 21:00 20,3 C 21,0 C 74 % 1013,0 hPa 0,0 mm 0,0 km/h (0 Bft) SO 135 15,5 C 0,0 km/h (0 Bft)
18.07.2015 21:05 19,9 C 20,6 C 73 % 1013,0 hPa 0,0 mm 0,0 km/h (0 Bft) O 90 14,9 C 0,0 km/h (0 Bft)
18.07.2015 21:10 19,6 C 19,7 C 75 % 1012,9 hPa 0,0 mm 0,0 km/h (0 Bft) S-SO 157 15,0 C 0,0 km/h (0 Bft)
18.07.2015 21:15 19,5 C 19,5 C 74 % 1012,9 hPa 0,0 mm 0,0 km/h (0 Bft) SO 135 14,7 C 0,0 km/h (0 Bft)
18.07.2015 21:20 19,4 C 19,3 C 75 % 1012,9 hPa 0,0 mm 0,0 km/h (0 Bft) SO 135 14,8 C 0,0 km/h (0 Bft)
18.07.2015 21:25 19,3 C 19,1 C 75 % 1012,9 hPa 0,0 mm 0,0 km/h (0 Bft) S 180 14,8 C 0,0 km/h (0 Bft)
18.07.2015 21:30 18,8 C 18,7 C 76 % 1012,9 hPa 0,0 mm 0,0 km/h (0 Bft) S-SO 157 14,5 C 0,0 km/h (0 Bft)
18.07.2015 21:35 19,0 C 18,7 C 78 % 1012,9 hPa 0,0 mm 0,5 km/h (0 Bft) S 180 15,1 C 3,4 km/h (1 Bft)
18.07.2015 21:40 18,9 C 18,7 C 77 % 1012,9 hPa 0,0 mm 2,3 km/h (1 Bft) S 180 14,8 C 6,0 km/h (2 Bft)
18.07.2015 21:45 18,7 C 18,7 C 77 % 1012,9 hPa 0,0 mm 3,1 km/h (1 Bft) S-SO 157 14,6 C 0,0 km/h (0 Bft)
18.07.2015 21:50 18,4 C 18,3 C 79 % 1013,2 hPa 0,0 mm 1,6 km/h (1 Bft) NO 45 14,7 C 0,0 km/h (0 Bft)
18.07.2015 21:55 18,2 C 18,2 C 77 % 1013,2 hPa 0,0 mm 0,3 km/h (0 Bft) O 90 14,1 C 0,0 km/h (0 Bft)
18.07.2015 22:00 18,1 C 18,3 C 78 % 1013,2 hPa 0,0 mm 1,6 km/h (1 Bft) S-SO 157 14,2 C 5,2 km/h (1 Bft)
18.07.2015 22:05 18,4 C 18,4 C 79 % 1013,2 hPa 0,0 mm 3,4 km/h (1 Bft) SO 135 14,7 C 4,9 km/h (1 Bft)
18.07.2015 22:10 18,2 C 18,2 C 78 % 1013,1 hPa 0,0 mm 3,9 km/h (1 Bft) S 180 14,3 C 0,0 km/h (0 Bft)
18.07.2015 22:15 18,0 C 18,0 C 79 % 1013,1 hPa 0,0 mm 2,3 km/h (1 Bft) S-SO 157 14,3 C 0,0 km/h (0 Bft)
18.07.2015 22:20 17,7 C 17,7 C 80 % 1013,1 hPa 0,0 mm 0,3 km/h (0 Bft) S 180 14,2 C 0,0 km/h (0 Bft)
18.07.2015 22:25 17,5 C 17,5 C 81 % 1013,1 hPa 0,0 mm 0,0 km/h (0 Bft) O 90 14,2 C 0,0 km/h (0 Bft)
18.07.2015 22:30 17,2 C 17,1 C 81 % 1012,9 hPa 0,0 mm 0,0 km/h (0 Bft) O-SO 112 13,9 C 0,0 km/h (0 Bft)
18.07.2015 22:35 17,2 C 17,2 C 80 % 1012,9 hPa 0,0 mm 0,0 km/h (0 Bft) SO 135 13,7 C 0,0 km/h (0 Bft)
18.07.2015 22:40 17,2 C 17,1 C 80 % 1012,9 hPa 0,0 mm 0,0 km/h (0 Bft) S-SO 157 13,7 C 0,0 km/h (0 Bft)
18.07.2015 22:45 17,2 C 17,2 C 81 % 1012,9 hPa 0,0 mm 0,0 km/h (0 Bft) S-SO 157 13,9 C 0,0 km/h (0 Bft)
18.07.2015 22:50 17,2 C 17,0 C 82 % 1012,9 hPa 0,0 mm 0,0 km/h (0 Bft) N 360 14,1 C 0,0 km/h (0 Bft)
18.07.2015 22:55 17,0 C 16,9 C 82 % 1012,9 hPa 0,0 mm 0,0 km/h (0 Bft) NO 45 13,9 C 0,0 km/h (0 Bft)
18.07.2015 23:00 17,0 C 16,8 C 82 % 1012,9 hPa 0,0 mm 0,0 km/h (0 Bft) S 180 13,9 C 0,0 km/h (0 Bft)
18.07.2015 23:05 16,9 C 16,7 C 82 % 1012,9 hPa 0,0 mm 0,0 km/h (0 Bft) S 180 13,8 C 0,0 km/h (0 Bft)
18.07.2015 23:10 16,9 C 16,7 C 83 % 1012,8 hPa 0,0 mm 0,0 km/h (0 Bft) SO 135 14,0 C 0,0 km/h (0 Bft)
18.07.2015 23:15 16,7 C 16,5 C 83 % 1012,8 hPa 0,0 mm 0,3 km/h (0 Bft) NW 315 13,8 C 2,6 km/h (1 Bft)
18.07.2015 23:20 16,7 C 16,5 C 84 % 1012,8 hPa 0,0 mm 0,3 km/h (0 Bft) O 90 14,0 C 0,0 km/h (0 Bft)
18.07.2015 23:25 16,8 C 16,5 C 85 % 1012,8 hPa 0,0 mm 0,3 km/h (0 Bft) O 90 14,3 C 0,0 km/h (0 Bft)
18.07.2015 23:30 16,8 C 16,5 C 85 % 1012,8 hPa 0,0 mm 0,0 km/h (0 Bft) O-SO 112 14,3 C 0,0 km/h (0 Bft)
18.07.2015 23:35 16,7 C 16,4 C 84 % 1012,8 hPa 0,0 mm 0,0 km/h (0 Bft) O 90 14,0 C 0,0 km/h (0 Bft)
18.07.2015 23:40 16,5 C 16,3 C 81 % 1012,8 hPa 0,0 mm 0,0 km/h (0 Bft) S 180 13,2 C 0,0 km/h (0 Bft)
18.07.2015 23:45 16,2 C 16,2 C 81 % 1012,8 hPa 0,0 mm 0,0 km/h (0 Bft) O 90 12,9 C 0,0 km/h (0 Bft)
18.07.2015 23:50 16,1 C 15,9 C 83 % 1012,4 hPa 0,0 mm 0,0 km/h (0 Bft) SO 135 13,2 C 0,0 km/h (0 Bft)
18.07.2015 23:55 16,0 C 15,8 C 83 % 1012,4 hPa 0,0 mm 0,0 km/h (0 Bft) W-NW 292 13,1 C 0,0 km/h (0 Bft)
_ Min-Zeit 23:55 23:55 11:05 23:55 - 23:55 - - 03:55 23:55
Minimum _ 16,0 C 15,8 C 45 % 1012,4 hPa - 0,0 km/h (0 Bft) - - 8,7 C 0,0 km/h (0 Bft)
_ Max-Zeit 10:55 10:40 23:30 13:45 23:55 12:45 - - 10:15 12:50
Maximum _ 27,6 C 34,2 C 85 % 1016,8 hPa 0,0 mm 16,8 km/h
N-NW (3 Bft)
- - 17,1 C 41,4 km/h
W (6 Bft)
Durchschnitt _ 21,1 C 23,3 C 62 % 1014,4 hPa #0,0 mm 2,6 km/h (1 Bft) W - 13,3 C 3,7 km/h (1 Bft)